sat.trackr.live / text

‹ back to catalog

HISPASAT 30W-6

NORAD 43228 · 2018-023A

PAYLOAD ACTIVE UNKNOWN

§ Identity

Operator
Country
SPN
Launch date
2018-03-06
Launch site
AFETR
Launch vehicle
Mass (kg)
RCS (m²)

Purposes: comms

External: N2YO · Heavens-Above · Gunter

§ Orbital elements

Epoch: 2026-05-25T04:42:03.573216Z

Period
1,436.11 min
Inclination
0.0484°
Eccentricity
0.0006373
Mean motion
1.00270781 rev/d
Perigee alt
35,760.0 km
Apogee alt
35,813.7 km
Semi-major
42,165.0 km
B*
0.0000e+0
RAAN
44.6618°
Arg perigee
12.8988°
Mean anomaly
225.7358°
Rev number
3,017

§ Raw data

HISPASAT 30W-61 43228U 18023A   26145.19587469 -.00000218  00000+0  00000+0 0  99902 43228   0.0484  44.6618 0006373  12.8988 225.7358  1.00270781 30170

JSON: /api/v1/satellites/43228 · /tle

For live sub-satellite position, see the globe view (requires WebGL).

§ Visibility from observer

Set your observer location to see the next 7 days of passes ≥ 10°. The values pass through the URL so the page stays shareable.

No JS? Fill the form by hand. The geolocation button needs JavaScript.